This demonstration page uses our WeatherBlox Daily Observations layout. Learn more.

36.17497, -115.13722

Hourly Observations for February 17, 2015

Temp ( °F °C ) Dew Point ( °F °C ) Humidity (%) Winds ( mph kmh ) Pressure ( in mb ) Visibility ( mi km ) Precip ( " mm )
12:53 am 00:53 Clear 55 12.8 8 -13.3 15 15 SW 8 13 30.13 1020 10 16.0934 0 0
1:53 am 01:53 Clear 53 11.7 9 -12.8 17 17 SW 7 11 30.14 1021 10 16.0934 0 0
2:53 am 02:53 Clear 52 11.1 10 -12.2 18 18 WSW 5 7 30.15 1021 10 16.0934 0 0
3:53 am 03:53 Clear 51 10.6 10 -12.2 19 19 WSW 3 6 30.17 1022 10 16.0934 0 0
4:53 am 04:53 Clear 48 8.9 13 -10.6 24 24 NW 5 7 30.19 1023 10 16.0934 0 0
5:53 am 05:53 Clear 48 8.9 12 -11.1 23 23 W 7 11 30.22 1023 10 16.0934 0 0
6:53 am 06:53 Sunny 48 8.9 13 -10.6 24 24 Calm 30.24 1024 10 16.0934 0 0
7:53 am 07:53 Sunny 52 11.1 12 -11.1 20 20 WSW 5 7 30.25 1024 10 16.0934 0 0
8:53 am 08:53 Sunny 55 12.8 11 -11.7 17 17 S 5 7 30.27 1025 10 16.0934 0 0
9:53 am 09:53 Sunny 57 13.9 12 -11.1 17 17 SE 3 6 30.28 1025 10 16.0934 0 0
10:53 am 10:53 Sunny 60 15.6 8 -13.3 12 12 VRB 5 7 30.27 1025 10 16.0934 0 0
11:53 am 11:53 Sunny 62 16.7 7 -13.9 11 11 E 3 6 30.24 1024 10 16.0934 0 0
12:53 pm 12:53 Sunny 63 17.2 5 -15 10 10 Calm 30.2 1023 10 16.0934 0 0
1:53 pm 13:53 Sunny 63 17.2 5 -15 10 10 SSE 5 7 30.18 1022 10 16.0934 0 0
2:53 pm 14:53 Sunny 66 18.9 5 -15 9 9 VRB 5 7 30.16 1022 10 16.0934 0 0
3:53 pm 15:53 Sunny 65 18.3 5 -15 9 9 VRB 5 7 30.16 1021 10 16.0934 0 0
4:53 pm 16:53 Sunny 64 17.8 6 -14.4 10 10 E 3 6 30.16 1022 10 16.0934 0 0
5:53 pm 17:53 Clear 63 17.2 6 -14.4 10 10 E 3 6 30.16 1021 10 16.0934 0 0
6:53 pm 18:53 Clear 61 16.1 8 -13.3 12 12 Calm 30.17 1022 10 16.0934 0 0
7:53 pm 19:53 Clear 57 13.9 13 -10.6 17 17 NW 6 9 30.19 1022 10 16.0934 0 0
8:53 pm 20:53 Clear 54 12.2 18 -7.8 24 24 NW 7 11 30.2 1023 10 16.0934 0 0
9:53 pm 21:53 Clear 52 11.1 18 -7.8 26 26 NW 8 13 30.2 1023 10 16.0934 0 0
10:53 pm 22:53 Clear 51 10.6 17 -8.3 26 26 NNW 5 7 30.2 1023 10 16.0934 0 0
11:53 pm 23:53 Clear 50 10 17 -8.3 27 27 Calm 30.21 1023 10 16.0934 0 0

Powered by AerisWeather